This is the latest recevied weather packets stored in our database for station/object KC1OEK-13. If no packets are shown the sender has not sent any weather packets the latest 1 day(s).
| Time | Temp. | Humidity | Pressure | Rain* | Wind** | Luminosity | Snow |
|---|---|---|---|---|---|---|---|
| 1778026507 | 19.44° C | 62% | 1010.6 hPa | 0 mm | 0.89 m/s, 345° | 0 W/m² | - |
| 1778026204 | 19.44° C | 61% | 1010.7 hPa | 0 mm | 0.89 m/s, 287° | 0 W/m² | - |
| 1778025901 | 20° C | 61% | 1010.4 hPa | 0 mm | 1.34 m/s, 268° | 1 W/m² | - |
| 1778025598 | 20° C | 61% | 1010.5 hPa | 0 mm | 0.89 m/s, 58° | 1 W/m² | - |
| 1778025297 | 20° C | 60% | 1010.5 hPa | 0 mm | 2.24 m/s, 210° | 2 W/m² | - |
| 1778024993 | 20° C | 60% | 1010.5 hPa | 0 mm | 1.34 m/s, 314° | 3 W/m² | - |
| 1778024690 | 20° C | 60% | 1010.3 hPa | 0 mm | 0.89 m/s, 347° | 4 W/m² | - |
| 1778024387 | 20° C | 60% | 1010.3 hPa | 0 mm | 0.89 m/s, 14° | 6 W/m² | - |
| 1778024085 | 20.56° C | 60% | 1010.3 hPa | 0 mm | 0.89 m/s, 286° | 8 W/m² | - |
| 1778023782 | 20.56° C | 59% | 1010.1 hPa | 0 mm | 1.79 m/s, 191° | 12 W/m² | - |
| 1778023480 | 20.56° C | 58% | 1010.1 hPa | 0 mm | 3.13 m/s, 182° | 17 W/m² | - |
| 1778023177 | 20.56° C | 59% | 1010 hPa | 0 mm | 1.34 m/s, 238° | 24 W/m² | - |
| 1778022874 | 21.11° C | 58% | 1010 hPa | 0 mm | 1.34 m/s, 211° | 33 W/m² | - |
| 1778022572 | 21.11° C | 57% | 1009.6 hPa | 0 mm | 1.79 m/s, 213° | 42 W/m² | - |
| 1778022269 | 21.11° C | 56% | 1010 hPa | 0 mm | 4.47 m/s, 199° | 49 W/m² | - |
| 1778021965 | 21.11° C | 57% | 1010 hPa | 0 mm | 0.89 m/s, 103° | 54 W/m² | - |
| 1778021663 | 21.11° C | 57% | 1009.7 hPa | 0 mm | 2.24 m/s, 199° | 56 W/m² | - |
| 1778021358 | 21.11° C | 57% | 1009.8 hPa | 0 mm | 1.79 m/s, 318° | 51 W/m² | - |
| 1778021056 | 21.67° C | 56% | 1009.7 hPa | 0 mm | 1.79 m/s, 213° | 55 W/m² | - |
| 1778020752 | 21.67° C | 55% | 1009.6 hPa | 0 mm | 2.68 m/s, 227° | 80 W/m² | - |
| 1778020450 | 22.22° C | 55% | 1009.4 hPa | 0 mm | 1.79 m/s, 221° | 93 W/m² | - |
| 1778020146 | 22.22° C | 55% | 1009.5 hPa | 0 mm | 1.34 m/s, 287° | 106 W/m² | - |
| 1778019842 | 22.22° C | 55% | 1009.5 hPa | 0 mm | 4.92 m/s, 211° | 119 W/m² | - |
| 1778019539 | 22.22° C | 56% | 1009.3 hPa | 0 mm | 2.24 m/s, 206° | 70 W/m² | - |
| 1778019236 | 22.22° C | 55% | 1009.7 hPa | 0 mm | 2.24 m/s, 224° | 67 W/m² | - |
* Rain latest hour (hover to see other rain measurements)
** Current wind speed in m/s (hover to see current wind gust speed)